Total_Precipitation_Accumulation
0.50 0.35 0.35 0.43 0.41 0.44 0.59 0.64 0.59 0.37 0.29 0.32 0.31 0.30 0.28 0.28 0.26 0.21 0.20 0.24 0.27 0.28 0.28 0.31 0.35 0.40 0.49 0.56 0.58 0.68 0.76 0.75 0.73 0.78 0.82 0.81 0.87 0.90 0.94 1.00 1.02 0.99 0.95 0.97
0.56 0.36 0.33 0.35 0.30 0.32 0.38 0.38 0.35 0.28 0.30 0.31 0.28 0.26 0.25 0.26 0.29 0.28 0.26 0.29 0.31 0.33 0.34 0.36 0.42 0.53 0.63 0.72 0.75 0.79 0.88 0.90 0.81 0.75 0.76 0.80 0.83 0.87 0.89 0.93 0.96 0.95 0.90 0.89
0.80 0.44 0.57 0.61 0.39 0.36 0.36 0.37 0.36 0.37 0.34 0.29 0.26 0.25 0.26 0.26 0.28 0.31 0.29 0.30 0.33 0.37 0.41 0.43 0.51 0.66 0.77 0.79 0.81 0.86 0.89 0.95 0.93 0.81 0.75 0.77 0.78 0.78 0.80 0.82 0.85 0.85 0.85 0.84
1.10 0.81 1.04 0.56 0.28 0.30 0.31 0.34 0.35 0.35 0.33 0.30 0.30 0.27 0.25 0.24 0.26 0.29 0.31 0.34 0.39 0.45 0.45 0.48 0.57 0.69 0.78 0.82 0.86 0.92 0.94 0.93 0.91 0.81 0.72 0.72 0.75 0.73 0.69 0.69 0.75 0.78 0.80 0.79
1.36 1.05 0.62 0.24 0.18 0.28 0.35 0.39 0.38 0.35 0.31 0.29 0.26 0.23 0.24 0.26 0.27 0.31 0.35 0.35 0.39 0.43 0.44 0.48 0.54 0.63 0.69 0.73 0.77 0.82 0.88 0.86 0.83 0.77 0.71 0.73 0.76 0.72 0.66 0.65 0.68 0.70 0.72 0.76
1.50 1.19 0.60 0.25 0.14 0.20 0.33 0.44 0.33 0.32 0.32 0.32 0.33 0.48 0.37 0.31 0.28 0.27 0.28 0.29 0.32 0.36 0.35 0.39 0.46 0.51 0.55 0.60 0.63 0.67 0.72 0.77 0.81 0.75 0.71 0.74 0.75 0.72 0.68 0.67 0.71 0.73 0.73 0.78
1.28 1.12 0.51 0.21 0.13 0.18 0.48 0.58 0.36 0.33 0.35 0.41 0.52 0.58 0.41 0.32 0.29 0.28 0.28 0.28 0.29 0.32 0.35 0.40 0.48 0.52 0.53 0.54 0.57 0.58 0.59 0.63 0.73 0.76 0.72 0.72 0.72 0.72 0.72 0.72 0.73 0.77 0.77 0.79
1.02 1.21 0.65 0.23 0.22 0.41 0.58 0.39 0.33 0.35 0.39 0.47 0.45 0.34 0.30 0.30 0.31 0.29 0.28 0.28 0.31 0.36 0.41 0.47 0.51 0.51 0.49 0.52 0.53 0.52 0.55 0.56 0.61 0.70 0.69 0.68 0.69 0.68 0.67 0.72 0.77 0.78 0.79 0.80
0.76 0.71 0.43 0.32 0.38 0.42 0.40 0.41 0.41 0.50 0.50 0.48 0.45 0.39 0.37 0.34 0.31 0.30 0.30 0.31 0.34 0.38 0.43 0.48 0.47 0.46 0.47 0.50 0.50 0.49 0.53 0.56 0.59 0.64 0.64 0.63 0.64 0.66 0.63 0.65 0.72 0.78 0.79 0.81
0.54 0.41 0.32 0.29 0.27 0.27 0.29 0.38 0.43 0.45 0.47 0.49 0.52 0.47 0.42 0.41 0.39 0.37 0.36 0.36 0.37 0.37 0.41 0.45 0.43 0.43 0.47 0.49 0.49 0.48 0.55 0.60 0.62 0.64 0.68 0.66 0.62 0.61 0.62 0.68 0.82 0.90 0.88 0.86
0.42 0.33 0.28 0.27 0.27 0.28 0.31 0.31 0.30 0.31 0.35 0.46 0.54 0.50 0.43 0.42 0.45 0.47 0.46 0.44 0.42 0.43 0.45 0.45 0.39 0.38 0.46 0.52 0.53 0.54 0.55 0.61 0.66 0.68 0.69 0.68 0.64 0.64 0.67 0.71 0.92 1.17 1.12 1.09
0.39 0.31 0.32 0.32 0.29 0.29 0.32 0.32 0.32 0.33 0.35 0.37 0.42 0.43 0.40 0.42 0.45 0.46 0.48 0.50 0.47 0.44 0.40 0.39 0.36 0.37 0.43 0.49 0.54 0.55 0.55 0.58 0.64 0.70 0.73 0.70 0.65 0.66 0.68 0.69 0.77 0.82 0.87 0.99
0.31 0.27 0.26 0.27 0.25 0.25 0.28 0.31 0.34 0.36 0.36 0.32 0.32 0.35 0.39 0.44 0.45 0.45 0.47 0.48 0.46 0.42 0.40 0.39 0.37 0.38 0.43 0.47 0.52 0.56 0.58 0.59 0.62 0.65 0.68 0.69 0.67 0.64 0.65 0.63 0.62 0.65 0.68 0.76
0.23 0.23 0.26 0.23 0.23 0.22 0.23 0.25 0.28 0.31 0.31 0.28 0.29 0.30 0.34 0.40 0.40 0.39 0.41 0.42 0.41 0.39 0.38 0.37 0.35 0.38 0.42 0.43 0.47 0.53 0.58 0.61 0.62 0.64 0.67 0.66 0.67 0.65 0.63 0.61 0.63 0.63 0.62 0.66
0.19 0.22 0.27 0.23 0.20 0.20 0.21 0.22 0.23 0.25 0.25 0.26 0.26 0.28 0.31 0.35 0.39 0.41 0.39 0.36 0.35 0.34 0.35 0.34 0.32 0.35 0.36 0.37 0.40 0.45 0.49 0.54 0.57 0.60 0.63 0.65 0.66 0.66 0.64 0.62 0.63 0.64 0.64 0.67
0.20 0.21 0.21 0.22 0.23 0.25 0.24 0.23 0.25 0.26 0.25 0.25 0.26 0.27 0.29 0.31 0.32 0.34 0.34 0.32 0.31 0.34 0.36 0.34 0.33 0.34 0.34 0.35 0.37 0.39 0.43 0.52 0.57 0.58 0.60 0.62 0.65 0.66 0.67 0.69 0.68 0.66 0.69 0.74
0.24 0.24 0.25 0.28 0.28 0.30 0.32 0.31 0.29 0.27 0.23 0.21 0.22 0.24 0.24 0.25 0.25 0.26 0.29 0.31 0.30 0.32 0.34 0.35 0.35 0.32 0.32 0.34 0.39 0.41 0.43 0.49 0.55 0.56 0.58 0.62 0.66 0.71 0.73 0.75 0.76 0.72 0.69 0.73
0.29 0.31 0.33 0.37 0.37 0.36 0.34 0.31 0.27 0.25 0.23 0.22 0.22 0.22 0.23 0.24 0.25 0.25 0.27 0.28 0.27 0.28 0.30 0.34 0.36 0.32 0.30 0.34 0.42 0.45 0.48 0.52 0.55 0.58 0.60 0.64 0.71 0.73 0.74 0.76 0.76 0.73 0.69 0.69
0.27 0.30 0.32 0.35 0.37 0.38 0.36 0.31 0.28 0.28 0.27 0.26 0.25 0.26 0.27 0.28 0.28 0.28 0.27 0.26 0.26 0.28 0.30 0.30 0.33 0.30 0.30 0.35 0.47 0.50 0.54 0.57 0.58 0.57 0.60 0.68 0.70 0.66 0.69 0.72 0.74 0.71 0.68 0.68
0.29 0.30 0.32 0.33 0.34 0.35 0.34 0.30 0.27 0.28 0.29 0.29 0.29 0.30 0.31 0.31 0.31 0.31 0.30 0.31 0.33 0.36 0.32 0.31 0.30 0.31 0.35 0.41 0.54 0.58 0.60 0.62 0.63 0.61 0.62 0.64 0.66 0.66 0.68 0.70 0.72 0.72 0.71 0.71
0.33 0.32 0.33 0.33 0.32 0.30 0.30 0.28 0.27 0.28 0.29 0.29 0.30 0.32 0.33 0.34 0.34 0.33 0.32 0.33 0.34 0.34 0.32 0.33 0.33 0.43 0.52 0.60 0.64 0.63 0.63 0.64 0.66 0.67 0.67 0.68 0.69 0.66 0.67 0.69 0.72 0.73 0.73 0.73
0.33 0.33 0.34 0.33 0.30 0.29 0.29 0.28 0.28 0.28 0.28 0.29 0.30 0.32 0.34 0.35 0.34 0.35 0.35 0.39 0.42 0.42 0.38 0.37 0.46 0.65 0.70 0.71 0.64 0.64 0.63 0.62 0.63 0.66 0.69 0.73 0.77 0.76 0.73 0.74 0.78 0.77 0.75 0.77
0.33 0.35 0.36 0.34 0.32 0.31 0.31 0.30 0.30 0.29 0.30 0.31 0.32 0.34 0.36 0.38 0.37 0.39 0.46 0.45 0.44 0.47 0.44 0.44 0.57 0.67 0.69 0.64 0.60 0.60 0.61 0.63 0.65 0.67 0.71 0.76 0.80 0.82 0.84 0.83 0.81 0.82 0.84 0.84
0.38 0.39 0.39 0.37 0.33 0.30 0.33 0.34 0.33 0.33 0.33 0.35 0.37 0.38 0.38 0.40 0.42 0.43 0.48 0.50 0.47 0.47 0.45 0.50 0.58 0.61 0.59 0.57 0.58 0.60 0.63 0.67 0.73 0.75 0.75 0.78 0.79 0.82 0.86 0.88 0.88 0.84 0.84 0.85
0.43 0.42 0.40 0.37 0.34 0.35 0.37 0.37 0.35 0.35 0.34 0.37 0.39 0.40 0.40 0.41 0.46 0.48 0.47 0.47 0.47 0.46 0.46 0.49 0.53 0.54 0.52 0.54 0.58 0.62 0.67 0.74 0.82 0.86 0.85 0.84 0.82 0.83 0.84 0.87 0.91 0.92 0.89 0.88
0.47 0.47 0.44 0.41 0.39 0.39 0.39 0.38 0.39 0.39 0.37 0.37 0.39 0.39 0.39 0.40 0.41 0.43 0.45 0.46 0.45 0.45 0.45 0.47 0.47 0.50 0.52 0.54 0.58 0.62 0.68 0.73 0.76 0.75 0.74 0.77 0.77 0.79 0.82 0.86 0.89 0.92 0.92 0.89
0.46 0.43 0.39 0.37 0.36 0.36 0.36 0.36 0.38 0.41 0.40 0.39 0.40 0.38 0.36 0.35 0.37 0.38 0.40 0.43 0.45 0.45 0.46 0.48 0.49 0.52 0.54 0.55 0.58 0.62 0.66 0.69 0.72 0.75 0.75 0.75 0.76 0.79 0.81 0.86 0.89 0.89 0.89 0.89